Kalamazoo, MI

8:59 AM EST on November 22, 2017 (GMT -0500)
Kalamazoo-Battle Creek International

Weather History for KAZO - June, 2013

Change the Weather History Date:

Sunday, June 2, 2013

  Actual Average Record
Temperature  
Mean Temperature 55 °F 64 °F  
Max Temperature 63 °F 75 °F 90 °F (1963)
Min Temperature 46 °F 53 °F 33 °F (1997)
Degree Days  
Heating Degree Days 10 4  
Month to date heating degree days 10 8  
Since 1 June heating degree days 10 8  
Since 1 July heating degree days 6282 6376  
Cooling Degree Days 0 3  
Month to date cooling degree days 4 6  
Year to date cooling degree days 84 47  
Since 1 June cooling degree days 4 6  
Growing Degree Days 8 (Base 50)    
Moisture  
Dew Point 52 °F    
Average Humidity 79    
Maximum Humidity 97    
Minimum Humidity 60    
Precipitation  
Precipitation T in 0.15 in 1.43 in (1965)
Month to date precipitation 0.30 0.29  
Year to date precipitation 15.36 12.73  
Sea Level Pressure  
Sea Level Pressure 29.85 in    
Wind  
Wind Speed 10 mph (WNW)    
Max Wind Speed 18 mph    
Max Gust Speed 28 mph    
Visibility 10 miles    
Events Rain    
T = Trace of Precipitation, MM = Missing Value Source: NWS Daily Summary

Daily Weather History Graph

Daily Weather History Graph

Search for Another Location

Airport or City:

Trip Planner

Search our weather history database for the weather conditions in past years. The results will help you decide how hot, cold, wet, or windy it might be!

Date:

Astronomy

Jun. 02, 2013 Rise Set
Actual Time 6:07 AM EDT 9:13 PM EDT
Civil Twilight 5:33 AM EDT 9:47 PM EDT
Nautical Twilight 4:50 AM EDT 10:30 PM EDT
Astronomical Twilight 3:59 AM EDT 11:22 PM EDT
Moon 2:40 AM EDT (6/2) 3:37 PM EDT (6/2)
Length of Visible Light 16h 13m
Length of Day
15h 05m
Waning Crescent, 31% of the Moon is Illuminated
Jun 2
Waning Crescent
Jun 8
New
Jun 16
First Quarter
Jun 23
Full
Jun 30
Last Quarter

Hourly Weather History & Observations

Time (EDT) Temp. Dew Point Humidity Pressure Visibility Wind Dir Wind Speed Gust Speed Precip Events Conditions
12:53 AM 62.1 °F 59.0 °F 90% 29.69 in 10.0 mi SW 3.5 mph - 0.06 in   Overcast
1:53 AM 61.0 °F 59.0 °F 93% 29.69 in 10.0 mi SW 5.8 mph - N/A   Overcast
2:36 AM 62.6 °F 59.0 °F 88% 29.70 in 10.0 mi SSW 8.1 mph - N/A   Mostly Cloudy
2:53 AM 62.1 °F 60.1 °F 93% 29.69 in 10.0 mi SW 9.2 mph - 0.00 in Rain Light Rain
3:53 AM 63.0 °F 60.1 °F 90% 29.69 in 10.0 mi WSW 8.1 mph - 0.00 in   Overcast
4:53 AM 63.0 °F 60.1 °F 90% 29.70 in 10.0 mi SW 11.5 mph - N/A   Overcast
5:53 AM 62.1 °F 59.0 °F 90% 29.73 in 10.0 mi WSW 9.2 mph - N/A   Overcast
6:38 AM 62.6 °F 57.2 °F 82% 29.75 in 10.0 mi WSW 9.2 mph - N/A   Overcast
6:51 AM 62.6 °F 57.2 °F 82% 29.76 in 10.0 mi WSW 10.4 mph - N/A   Overcast
6:53 AM 62.1 °F 57.9 °F 86% 29.75 in 10.0 mi West 10.4 mph - N/A   Overcast
7:40 AM 62.6 °F 57.2 °F 82% 29.78 in 10.0 mi West 9.2 mph - 0.00 in   Overcast
7:53 AM 62.1 °F 57.9 °F 86% 29.78 in 10.0 mi West 11.5 mph - 0.00 in   Overcast
8:53 AM 57.9 °F 55.0 °F 90% 29.81 in 10.0 mi WNW 10.4 mph - N/A   Overcast
9:53 AM 55.0 °F 51.1 °F 86% 29.84 in 10.0 mi WNW 10.4 mph - N/A   Overcast
10:11 AM 55.4 °F 51.8 °F 88% 29.85 in 10.0 mi NW 11.5 mph - N/A   Overcast
10:30 AM 57.2 °F 51.8 °F 82% 29.85 in 10.0 mi WNW 16.1 mph - N/A   Mostly Cloudy
10:53 AM 57.9 °F 51.1 °F 78% 29.86 in 10.0 mi WNW 12.7 mph - N/A   Mostly Cloudy
11:53 AM 59.0 °F 50.0 °F 72% 29.88 in 10.0 mi West 9.2 mph - N/A   Mostly Cloudy
12:02 PM 60.8 °F 51.8 °F 72% 29.88 in 10.0 mi WNW 9.2 mph 16.1 mph N/A   Mostly Cloudy
12:26 PM 60.8 °F 51.8 °F 72% 29.89 in 10.0 mi West 11.5 mph - N/A   Mostly Cloudy
12:53 PM 60.1 °F 51.1 °F 72% 29.91 in 10.0 mi West 13.8 mph 18.4 mph N/A   Mostly Cloudy
1:53 PM 60.1 °F 48.9 °F 67% 29.92 in 10.0 mi NW 11.5 mph - N/A   Mostly Cloudy
2:53 PM 60.1 °F 48.9 °F 67% 29.93 in 10.0 mi NW 15.0 mph - N/A   Overcast
3:53 PM 59.0 °F 46.9 °F 64% 29.96 in 10.0 mi WNW 12.7 mph - N/A   Overcast
4:53 PM 60.1 °F 46.9 °F 62% 29.96 in 10.0 mi NW 15.0 mph - N/A   Mostly Cloudy
5:53 PM 60.1 °F 46.0 °F 60% 29.96 in 10.0 mi NW 9.2 mph - N/A   Scattered Clouds
6:53 PM 57.9 °F 44.1 °F 60% 29.96 in 10.0 mi WNW 10.4 mph - N/A   Partly Cloudy
7:53 PM 55.9 °F 43.0 °F 62% 29.98 in 10.0 mi NW 9.2 mph - N/A   Scattered Clouds
8:40 PM 53.6 °F 42.8 °F 67% 29.99 in 10.0 mi NW 10.4 mph - N/A   Mostly Cloudy
8:53 PM 53.1 °F 43.0 °F 69% 29.99 in 10.0 mi NW 10.4 mph - N/A   Mostly Cloudy
9:53 PM 52.0 °F 44.1 °F 74% 30.00 in 10.0 mi NNW 8.1 mph - N/A   Mostly Cloudy
10:53 PM 52.0 °F 44.1 °F 74% 30.02 in 10.0 mi NNW 11.5 mph - N/A   Overcast
11:53 PM 48.0 °F 42.1 °F 80% 30.03 in 10.0 mi North 9.2 mph - N/A   Scattered Clouds